Terminal Aerodrome Forecast
Issued by NWS Tampa Bay Area, FL

Home | Current Version | Previous Version | Text Only | Print | Product List | Glossary On
Versions: 1 2 3 4 5 6 7 8 9 10 11 12 13
000
FTUS42 KTBW 210500
TAFFMY
TAF
KFMY 210539Z 2106/2206 VRB04KT P6SM BKN100
     FM211400 16007KT P6SM SCT030 BKN080 BKN250
     FM211900 18007KT P6SM BKN070 BKN200
     FM220000 15005KT P6SM BKN060 BKN120=

USA.gov is the U.S. government's official web portal to all federal, state and local government web resources and services.